Location: Pedimozza
(42.0500°N, 9.3500°E)
Time: 19:30:21
(UTC+00:00)

Unknown - Pass Details

Date: 19 August 2019
Orbit: 443 x 445 km, 53.0° (Epoch: 18 October)

Event Time Altitude Azimuth Distance (km) Brightness Sun altitude
Rises 18:42:15 0° 306° (NW) 2,447 8.9 -5.1°
Reaches altitude 10° 18:44:23 10° 306° (NW) 1,572 7.6 -5.5°
Maximum altitude 18:47:55 81° 218° (SW) 455 3.2 -6.1°
Drops below altitude 10° 18:51:26 10° 132° (SE) 1,562 5.3 -6.7°
Enters shadow 18:51:52 - 132° (SE) 1,741 5.6 -6.7°
